TimeICT,TemperatureF,Dew PointF,Humidity,Sea Level PressureIn,VisibilityMPH,Wind Direction,Wind SpeedMPH,Gust SpeedMPH,PrecipitationIn,Events,Conditions,WindDirDegrees,DateUTC
12:00 AM,75.2,73.4,94,29.89,5.0,Variable,3.5,-,N/A,Rain,Light Rain,0,2013-08-05 17:00:00
12:30 AM,77.0,73.4,89,29.89,5.0,SW,3.5,-,N/A,Rain,Light Rain,230,2013-08-05 17:30:00
1:00 AM,80,77,86,29.82,6,Calm,Calm,,,Rain,Light Rain,,2013-08-05 18:00:00
1:00 AM,78.8,73.4,83,29.86,5.0,Variable,2.3,-,N/A,,Mostly Cloudy,0,2013-08-05 18:00:00
1:30 AM,77.0,73.4,89,29.86,5.0,SE,3.5,-,N/A,,Mostly Cloudy,130,2013-08-05 18:30:00
2:00 AM,77.0,73.4,89,29.86,5.0,Calm,Calm,-,N/A,,Mostly Cloudy,0,2013-08-05 19:00:00
2:30 AM,77.0,73.4,89,29.83,5.0,Calm,Calm,-,N/A,,Mostly Cloudy,0,2013-08-05 19:30:00
3:00 AM,77.0,73.4,89,29.83,4.3,WSW,16.1,31.1,N/A,Rain,Light Rain,250,2013-08-05 20:00:00
3:30 AM,77.0,73.4,89,29.83,3.1,West,21.9,-,N/A,Rain,Rain,270,2013-08-05 20:30:00
4:00 AM,77.0,73.4,89,29.83,3.1,West,19.6,-,N/A,Rain,Rain,270,2013-08-05 21:00:00
4:30 AM,78.8,71.6,78,29.83,4.3,West,23.0,-,N/A,Rain,Light Rain,260,2013-08-05 21:30:00
5:00 AM,78.8,71.6,78,29.83,3.1,West,21.9,33.4,N/A,Rain,Rain,270,2013-08-05 22:00:00
5:30 AM,77.0,73.4,89,29.83,4.3,West,16.1,-,N/A,Rain,Light Rain,280,2013-08-05 22:30:00
6:00 AM,78.8,73.4,83,29.83,5.0,WNW,11.5,-,N/A,,Mostly Cloudy,290,2013-08-05 23:00:00
6:30 AM,78.8,73.4,83,29.83,5.0,WNW,13.8,-,N/A,,Mostly Cloudy,290,2013-08-05 23:30:00
7:00 AM,80,76,83,29.80,6,Calm,Calm,,,,Partly Cloudy,,2013-08-06 00:00:00
7:00 AM,78.8,73.4,83,29.83,5.0,West,11.5,-,N/A,,Mostly Cloudy,280,2013-08-06 00:00:00
7:30 AM,80.6,73.4,79,29.83,3.1,West,11.5,-,N/A,Rain,Rain,280,2013-08-06 00:30:00
8:00 AM,78.8,71.6,78,29.86,5.0,West,13.8,-,N/A,,Mostly Cloudy,260,2013-08-06 01:00:00
8:30 AM,80.6,75.2,84,29.86,5.6,WSW,11.5,-,N/A,,Mostly Cloudy,250,2013-08-06 01:30:00
9:00 AM,80.6,73.4,79,29.86,5.6,WSW,11.5,-,N/A,,Mostly Cloudy,240,2013-08-06 02:00:00
9:30 AM,80.6,73.4,79,29.89,5.0,WSW,11.5,-,N/A,Rain,Light Rain,240,2013-08-06 02:30:00
10:00 AM,82.4,75.2,79,29.89,5.6,WSW,13.8,-,N/A,,Mostly Cloudy,240,2013-08-06 03:00:00
10:30 AM,82.4,73.4,74,29.89,5.6,WSW,11.5,-,N/A,,Mostly Cloudy,250,2013-08-06 03:30:00
11:00 AM,84.2,73.4,70,29.89,5.6,West,15.0,-,N/A,,Mostly Cloudy,260,2013-08-06 04:00:00
11:30 AM,82.4,73.4,74,29.89,5.0,WSW,13.8,-,N/A,,Mostly Cloudy,250,2013-08-06 04:30:00
12:00 PM,84.2,73.4,70,29.86,5.0,West,16.1,-,N/A,,Mostly Cloudy,260,2013-08-06 05:00:00
12:30 PM,78.8,75.2,89,29.86,4.3,WNW,13.8,-,N/A,,Mostly Cloudy,300,2013-08-06 05:30:00
1:00 PM,83,74,69,29.83,4,WNW,8.1,,,Rain,Light Rain,300,2013-08-06 06:00:00
1:00 PM,78.8,75.2,89,29.86,2.5,WNW,11.5,-,N/A,Rain,Rain,300,2013-08-06 06:00:00
1:30 PM,75.2,73.4,94,29.86,1.2,West,20.7,-,N/A,Rain,Rain,280,2013-08-06 06:30:00
2:00 PM,75.2,73.4,94,29.83,2.5,WNW,15.0,-,N/A,Rain,Rain,290,2013-08-06 07:00:00
2:30 PM,77.0,73.4,89,29.83,3.1,West,11.5,-,N/A,Rain,Rain,280,2013-08-06 07:30:00
3:00 PM,77.0,75.2,94,29.80,3.7,West,16.1,-,N/A,Rain,Rain,270,2013-08-06 08:00:00
3:30 PM,80.6,73.4,79,29.80,4.3,West,15.0,-,N/A,,Mostly Cloudy,270,2013-08-06 08:30:00
4:00 PM,78.8,73.4,83,29.80,4.3,West,11.5,-,N/A,,Mostly Cloudy,280,2013-08-06 09:00:00
4:30 PM,78.8,71.6,78,29.80,4.3,West,11.5,-,N/A,Rain,Light Rain,280,2013-08-06 09:30:00
5:00 PM,78.8,73.4,83,29.80,4.3,WNW,8.1,-,N/A,Rain,Rain,290,2013-08-06 10:00:00
5:30 PM,78.8,73.4,83,29.77,4.3,WNW,10.4,-,N/A,Rain,Rain,300,2013-08-06 10:30:00
6:00 PM,78.8,73.4,83,29.77,5.0,West,9.2,-,N/A,Rain,Rain,280,2013-08-06 11:00:00
6:30 PM,78.8,73.4,83,29.80,5.0,WNW,9.2,-,N/A,Rain,Light Rain,290,2013-08-06 11:30:00
7:00 PM,81,75,77,29.76,5,Calm,Calm,,,Rain,Light Rain,,2013-08-06 12:00:00
7:00 PM,77.0,73.4,89,29.80,5.0,Calm,Calm,-,N/A,Rain,Light Rain,0,2013-08-06 12:00:00
7:30 PM,77.0,73.4,89,29.80,5.0,Calm,Calm,-,N/A,,Mostly Cloudy,0,2013-08-06 12:30:00
8:00 PM,77.0,73.4,89,29.83,5.0,Calm,Calm,-,N/A,,Mostly Cloudy,0,2013-08-06 13:00:00
8:30 PM,77.0,73.4,89,29.83,5.0,Calm,Calm,-,N/A,,Mostly Cloudy,0,2013-08-06 13:30:00
9:00 PM,77.0,73.4,89,29.83,5.0,Calm,Calm,-,N/A,,Mostly Cloudy,0,2013-08-06 14:00:00
9:30 PM,78.8,73.4,83,29.86,5.0,Calm,Calm,-,N/A,,Mostly Cloudy,0,2013-08-06 14:30:00
10:00 PM,77.0,73.4,89,29.86,5.0,Calm,Calm,-,N/A,,Mostly Cloudy,0,2013-08-06 15:00:00
10:30 PM,77.0,73.4,89,29.86,5.0,Calm,Calm,-,N/A,,Mostly Cloudy,0,2013-08-06 15:30:00
11:00 PM,75.2,73.4,94,29.86,5.0,Calm,Calm,-,N/A,,Mostly Cloudy,0,2013-08-06 16:00:00
11:30 PM,75.2,73.4,94,29.86,5.0,Calm,Calm,-,N/A,,Mostly Cloudy,0,2013-08-06 16:30:00